Regional Weather Roundup
Issued by NWS Newport/Morehead, NC

Current Version | Previous Version | Graphics & Text | Print | Product List | Glossary Off
Versions: 1 2 3 4 5 6 7 8 9 10 11 12 13 14 15 16 17 18 19 20 21 22 23 24 25 26 27 28 29 30 31 32 33 34 35 36 37 38 39 40 41 42 43 44 45 46 47 48 49 50

051
ASUS42 KMHX 262013
RWRMHX
WEATHER ROUNDUP FOR EASTERN NORTH CAROLINA
NATIONAL WEATHER SERVICE NEWPORT/MOREHEAD CITY NC
400 PM EDT WED APR 26 2017

NOTE: "FAIR" INDICATES FEW OR NO CLOUDS BELOW 12,000 FEET
WITH NO SIGNIFICANT WEATHER AND/OR OBSTRUCTIONS TO VISIBILITY

NCZ015>017-031-032-045>047-102-103-262100-
NORTH COAST

CITY           SKY/WX    TMP DP  RH WIND       PRES   REMARKS
EDENTON        CLOUDY    74  62  66 CALM      29.80F
ELIZABETH CITY CLOUDY    72  61  68 W9        29.79S
KITTY HAWK     CLOUDY    71  57  62 CALM      29.79S
MANTEO         CLOUDY    70  59  68 W5        29.80F

$$

NCZ045>047-081-094-103-104-262100-
CENTRAL COAST

CITY           SKY/WX    TMP DP  RH WIND       PRES   REMARKS
FRISCO         SUNNY     74  60  61 W8        29.81F

$$

NCZ095-097-098-100-101-262100-
SOUTHERN COAST

CITY           SKY/WX    TMP DP  RH WIND       PRES   REMARKS
BEAUFORT       SUNNY     73  65  75 SW16      29.81F
CEDAR ISLAND   NOT AVBL
JACKSONVILLE   PTSUNNY   80  64  58 VRB6      29.79F
PINEY ISLAND   MOCLDY   N/A N/A N/A SW12      29.80F
WILMINGTON     MOSUNNY   82  62  50 SW15G21   29.80F


$$

NCZ011>013-027>030-043-044-078>080-089-090>093-098-262100-
COASTAL PLAIN

CITY           SKY/WX    TMP DP  RH WIND       PRES   REMARKS
AHOSKIE          N/A     73  61  64 CALM      29.79S
CLINTON        SUNNY     82  64  53 W13       29.80S
ELIZABETHTOWN  MOSUNNY   81  62  53 SW8       29.80S
GOLDSBORO      MOSUNNY   80  64  57 SW12      29.77F
GREENVILLE     MOSUNNY   79  63  57 W8        29.82S
HAVELOCK       NOT AVBL
KENANSVILLE    MOSUNNY   81  63  54 SW7       29.79F
KINSTON        MOSUNNY   81  63  54 W8        29.80F
NEW BERN       MOSUNNY   79  64  60 SW8       29.80F
RICHLANDS      MOSUNNY   82  63  52 SW8       29.80F
ROCKY MOUNT    PTSUNNY   77  63  61 W9        29.79S
WASHINGTON     PTSUNNY   76  63  63 W8        29.79S
WHITEVILLE     PTSUNNY   83  62  49 SW10      29.79F

$$

AMZ130-135-150-152-154-156-158-170-250-252-270-ANZ085-086-088-633-658-670-262100-
MARINE OBSERVATIONS

STATION/POSITION TIME  TEMP    WIND        PRES    WAVE   SWELL
                       AIR SEA DIR/SP/G            HT/PER HT/PER
                 (UTC) (F)     (DEG/KT/KT) (MB)    (FT/S) (FT/S)
CHESAPEAKE LIGHT NOT AVBL
64 E VA BEACH    1950   58 57  210/  2/  4 1009.6    6/ 9   7/ 9
DUCK             1942   68 60  230/  9/ 11 1008.3
2 E DUCK         2000      62                N/A     4/ 9   2/11
OREGON INLET     1942   68 65  290/  4/  5 1009.0
13E OREGON INLT  1948      62                N/A     5/10   5/10
HATTERAS CG      1942   71 68  250/  8/ 11 1009.1
DIAMOND BUOY     1950   70 77  260/ 12/ 14 1009.5    6/ 9   5/ 9
CAPE LOOKOUT     2000   70     210/ 13/ 16 1009.2
BEAUFORT LAB     1942   71 67  210/ 12/ 16 1008.6
30 SE NEW RVR IN 1908   69     220/  6/ 10 1010.4
30 SE NEW RVR IN 1943      72                N/A     4/ 9   2/11
27 SE WRIGHTSVLE 1908   71 72  200/  8/ 10 1009.3
5 SE WRIGHTSVLE  1908   71 71  190/ 12/ 17 1009.5
225 S CAPE HAT   1950   71 75  280/ 10/ 14 1012.5    8/ 8   7/ 8
41 SE CHARLESTON 1950   73 73  220/ 12/ 16 1010.5    4/ 9   3/ 9

$$




USA.gov is the U.S. government's official web portal to all federal, state and local government web resources and services.